Location: Street
(51.1247°N, 2.7429°W)
Time: 05:44:50
(UTC+01:00)

CAS-6 - Pass Details

Date: 01 April 2023
Orbit: 610 x 632 km, 97.9° (Epoch: 29 May)

Event Time Altitude Azimuth Distance (km) Brightness Sun altitude
Exits shadow 22:37:29 34° 42° (NE) 1,029 ? -24.8°
Drops below altitude 10° 22:40:44 10° 360° (N) 2,012 ? -25.2°
Sets 22:43:03 0° 352° (N) 2,927 ? -25.4°
